Location: Yellowknife
(62.4500°N, 114.3500°W)
Time: 06:26:23
(UTC-06:00)

Envisat - Visible Passes

Search period start: 28 March 2023 00:00
Search period end: 07 April 2023 00:00
Orbit: 763 x 765 km, 98.2° (Epoch: 28 March)

Date Brightness Start Highest point End Pass type
(mag) Time Alt. Az. Time Alt. Az. Time Alt. Az.
28 Mar 4.8 04:57:57 10° NNE 05:02:29 31° E 05:07:00 10° SSE visible
29 Mar 5.5 04:21:17 10° NE 04:24:54 19° E 04:28:32 10° SE visible
29 Mar 3.3 05:59:42 10° NNE 06:04:50 73° ESE 06:09:54 10° S visible
30 Mar 5.9 03:45:31 10° NE 03:47:08 11° ENE 03:48:46 10° E visible
30 Mar 4.2 05:22:39 10° NNE 05:27:32 44° E 05:32:23 10° S visible
31 Mar 5.0 04:45:46 10° NNE 04:50:05 27° E 04:54:22 10° SSE visible
01 Apr 5.6 04:09:15 10° NE 04:12:26 16° E 04:15:36 10° ESE visible
01 Apr 3.6 05:47:26 10° NNE 05:52:29 62° ESE 05:57:32 10° S visible
02 Apr 4.5 05:10:25 10° NNE 05:15:09 37° E 05:19:52 10° SSE visible
03 Apr 5.3 04:33:37 10° NE 04:37:39 23° E 04:41:38 10° SE visible
04 Apr 5.7 03:57:20 10° NE 03:59:56 14° ENE 04:02:31 10° ESE visible
04 Apr 3.9 05:35:09 10° NNE 05:40:09 52° E 05:45:07 10° S visible
05 Apr 4.8 04:58:12 10° NNE 05:02:45 32° E 05:07:16 10° SSE visible
06 Apr 5.5 04:21:30 10° NE 04:25:10 20° E 04:28:49 10° SE visible
